SCP
0 0 0 0 0 0 0 0 0 0 0 0 0 0 0 0 0 0 1 0 0 0 0 0 0 0 0 0 0 0 0 0 0 -0 -0 -0 -0 -0 -0 -0 -0 0 -0
0 0 0 0 0 0 0 0 0 0 0 0 0 0 0 0 0 0 0 0 0 0 0 0 0 0 0 0 0 0 0 0 0 0 0 0 -0 -0 -0 -0 -0 -0 -0
0 0 0 0 0 0 0 0 0 0 0 0 0 0 0 0 0 0 0 0 0 0 0 0 0 0 0 0 0 0 0 0 0 0 0 0 0 0 0 -0 -0 -0 -0
0 0 0 0 0 0 0 0 0 0 0 0 0 0 0 0 0 0 0 0 0 0 0 0 0 0 0 0 0 0 0 0 0 0 0 0 0 0 0 0 0 -0 -0
0 0 0 0 0 0 0 0 0 0 0 0 0 0 0 0 0 0 0 0 0 0 0 0 0 0 0 0 0 0 0 0 0 0 0 0 0 0 0 0 0 0 0
0 0 0 0 0 0 0 0 0 0 0 0 0 0 0 0 0 0 0 0 0 0 0 0 0 0 0 0 0 0 0 0 0 0 0 0 0 0 0 0 0 0 0
0 0 0 0 0 0 0 0 0 0 0 0 0 0 0 0 0 0 0 0 0 0 0 0 0 0 0 0 0 0 0 0 0 0 0 0 0 0 0 0 0 0 0
0 0 0 0 0 0 0 0 0 0 0 0 0 0 0 0 0 0 0 0 0 0 0 0 0 0 0 0 0 0 0 0 0 0 0 0 0 0 0 0 0 0 0
0 0 0 0 0 0 0 0 0 0 0 0 0 0 0 0 0 0 0 0 0 0 0 0 0 0 0 0 0 0 0 0 0 0 0 0 0 0 0 0 0 0 0
0 0 0 -0 0 0 0 0 0 0 0 0 0 0 0 0 0 0 0 0 0 0 0 0 0 0 0 0 0 0 0 0 0 0 0 0 0 0 0 0 0 0 0
0 -0 -0 -0 -0 0 0 0 0 0 0 0 0 0 0 0 0 0 0 0 0 0 0 0 0 0 0 0 0 0 0 0 0 0 0 0 0 0 0 0 0 0 0
-0 -0 -0 -0 -0 0 0 0 0 0 0 0 0 0 0 0 0 0 0 0 0 0 0 0 0 0 0 0 0 0 0 0 0 0 0 0 0 0 0 0 0 0 0
-0 -0 -0 0 0 -0 0 0 0 0 0 0 0 0 0 0 0 0 0 0 0 0 0 0 0 0 0 0 0 0 0 0 0 0 0 0 0 0 0 0 0 0 0
0 0 0 0 0 0 -0 -0 0 0 0 0 0 0 0 0 0 0 0 0 0 0 0 0 0 0 0 0 0 0 0 0 0 0 0 0 0 0 0 0 0 0 0
0 -0 -0 -0 -0 -0 -0 -0 -0 0 0 0 0 0 0 0 0 0 0 0 0 0 0 0 0 0 0 0 0 0 0 0 0 0 0 0 0 0 0 0 0 0 0
0 -0 -0 -0 -0 -0 -0 -0 0 0 0 0 0 0 0 0 0 0 0 1 1 1 0 0 0 0 0 0 0 0 0 0 0 0 0 0 0 0 0 0 0 0 0
-0 -0 -0 -0 -0 -0 -0 -0 0 0 0 0 0 0 0 0 0 0 0 0 0 1 0 0 0 0 0 0 0 0 0 0 0 0 0 0 0 0 0 0 0 0 0
-0 -0 -0 -0 -0 -0 -0 -0 0 0 0 0 0 0 0 0 0 0 0 0 -0 0 0 0 0 0 0 0 0 0 0 0 0 0 0 0 0 0 0 0 0 0 0
-0 0 -0 -0 -0 -0 -0 0 0 0 0 0 0 0 0 0 0 0 0 0 0 0 0 0 0 0 0 0 0 0 0 0 0 0 0 0 0 0 0 0 0 0 0
0 0 0 0 0 0 0 0 0 0 0 0 0 0 0 0 0 0 0 0 0 0 0 0 0 0 0 0 0 0 0 0 0 0 0 0 0 0 0 0 0 0 0
0 0 0 0 0 0 0 0 0 0 0 0 0 0 0 0 0 0 0 0 0 0 0 0 0 0 0 0 0 0 0 0 0 0 0 0 0 0 0 0 0 0 0
0 0 0 0 0 0 0 0 0 0 0 0 0 0 0 0 0 0 0 0 0 0 0 1 0 0 0 0 0 0 0 0 0 0 0 0 0 0 0 0 0 0 0
0 0 0 0 0 0 0 0 0 0 0 0 0 0 0 0 0 0 0 0 0 0 0 1 1 1 0 0 0 0 0 0 0 0 0 0 0 0 0 0 0 0 0
0 0 0 0 0 0 0 0 0 0 0 0 0 0 0 0 0 0 0 0 0 0 0 1 1 1 0 0 0 0 0 0 0 0 0 0 0 0 0 0 0 0 0
0 0 0 0 0 0 0 0 0 0 0 0 0 0 0 0 0 0 0 0 0 0 0 0 1 1 0 0 0 0 0 0 0 0 0 0 0 0 0 0 0 0 0
0 0 0 0 0 0 0 0 0 0 0 0 0 0 0 0 0 0 0 0 0 0 0 0 0 1 1 0 0 0 0 0 0 0 0 0 0 0 0 0 0 0 0
Wind_Speed_500mb
14 11 9 10 16 14 20 22 24 27 27 26 26 26 23 21 22 28 30 30 29 30 31 30 28 28 25 29 29 25 21 19 17 18 18 16 13 45 44 39 40 38 33
19 19 10 12 19 22 20 26 26 25 25 26 24 22 21 20 20 25 30 31 30 30 30 28 26 27 28 34 31 28 27 23 22 23 23 19 29 49 39 39 34 35 33
17 12 14 10 20 23 23 24 29 27 27 27 26 24 22 19 21 25 31 31 30 30 27 25 24 27 31 35 34 32 30 25 22 18 21 26 44 47 40 37 32 33 31
23 17 12 6 16 23 25 22 28 30 28 29 28 27 24 21 22 26 32 33 33 30 26 21 19 19 23 30 32 33 30 27 22 17 29 35 50 42 39 32 29 31 32
22 21 14 11 9 23 26 24 25 30 34 31 31 30 28 25 25 29 31 34 34 31 27 20 17 18 22 23 23 28 27 28 24 12 33 49 52 40 35 31 33 31 32
23 25 21 16 16 12 28 31 31 30 33 36 35 34 32 31 30 32 34 36 38 34 31 26 24 21 25 24 31 30 31 29 27 20 35 51 46 38 35 31 35 35 33
18 21 23 19 20 27 16 40 38 36 35 35 39 39 39 38 38 38 37 39 42 38 35 30 31 27 26 31 31 30 29 26 34 30 37 51 46 36 35 31 32 36 33
21 24 27 25 22 24 28 27 26 43 40 41 41 43 44 45 44 44 43 41 45 43 39 36 37 35 31 32 36 34 29 22 39 39 35 43 50 44 44 37 32 34 35
31 35 37 39 37 31 32 32 33 30 47 45 47 46 48 48 48 48 48 45 48 48 45 40 41 38 36 37 39 39 33 25 49 44 40 35 41 52 46 43 38 37 39
35 39 43 45 47 47 41 39 38 37 39 51 52 52 53 52 50 50 51 50 51 52 50 47 48 43 38 37 39 40 38 36 47 50 45 40 37 42 54 53 44 44 45
46 46 45 48 50 50 49 45 43 41 39 45 47 57 58 59 58 56 56 55 53 54 55 53 51 48 44 43 41 40 39 43 45 57 48 41 36 39 43 45 49 49 49
53 56 59 62 59 56 54 52 50 46 45 41 41 44 63 64 65 64 61 59 57 57 57 58 55 51 49 50 46 43 45 44 60 58 51 44 34 34 44 41 50 41 49
53 58 56 49 49 50 51 55 55 55 50 50 45 42 47 59 72 70 69 66 64 62 61 62 61 56 61 59 52 51 48 46 49 66 58 50 43 41 50 53 48 47 49
47 38 40 48 53 57 66 63 62 61 58 53 53 48 48 53 38 73 76 75 73 70 68 68 67 64 68 63 56 53 53 50 55 54 72 61 50 46 44 41 51 41 36
42 49 58 64 75 86 87 80 68 65 64 61 57 57 50 51 57 39 77 80 81 79 76 73 73 72 73 71 62 57 57 54 56 57 73 66 59 47 48 46 44 44 41
51 60 69 78 89 97 93 87 76 68 67 66 64 60 60 58 59 61 39 74 86 85 83 82 82 82 81 79 72 64 61 56 56 59 64 72 61 52 49 50 44 50 46
60 71 79 91 98 93 86 78 71 68 68 69 70 68 65 64 64 64 67 57 66 91 91 87 89 94 88 86 81 72 65 59 54 59 62 72 65 56 53 50 48 55 49
73 82 90 94 92 86 78 76 74 68 70 72 71 74 72 68 67 69 68 72 85 56 74 84 101 99 101 97 90 81 73 65 57 55 61 68 68 60 58 55 49 58 56
82 86 90 87 87 85 78 72 74 70 67 73 73 73 76 75 68 68 71 68 59 56 58 46 79 107 97 100 97 88 80 73 64 60 60 70 65 64 62 55 51 55 62
83 89 86 85 83 80 77 68 66 71 71 69 74 73 72 73 72 66 68 68 62 56 61 61 69 63 108 110 95 91 85 75 67 67 66 67 69 69 68 62 56 56 60
89 86 79 81 78 74 71 67 67 67 69 67 70 71 70 68 69 70 66 65 61 55 55 58 66 74 69 66 49 53 87 74 72 74 73 70 70 73 75 71 65 63 58
83 76 69 68 70 68 69 66 63 61 68 67 64 71 70 69 64 68 63 56 58 61 57 59 63 74 82 85 86 76 54 76 78 79 79 80 80 77 78 82 76 71 66
78 73 69 66 65 62 60 59 63 58 61 62 62 62 67 65 60 60 60 54 56 62 64 62 67 69 74 83 89 61 26 30 66 80 87 86 84 84 82 82 78 74 69
73 72 68 63 59 58 58 58 58 63 63 63 63 64 63 56 56 50 57 50 52 62 63 63 64 71 79 81 89 86 70 45 37 36 78 83 72 80 81 81 79 75 71
72 70 65 60 58 53 51 55 58 58 62 61 65 69 65 56 54 39 48 49 50 58 66 63 59 69 84 92 92 96 101 78 57 50 51 62 80 77 83 79 78 74 71
72 68 62 59 55 56 55 51 51 55 61 61 61 62 54 49 53 45 45 47 45 49 61 70 67 65 88 89 94 96 103 96 89 79 68 62 79 65 67 64 77 75 71
Wind_Direction_500mb
354 337 284 239 205 211 225 212 202 198 198 200 201 204 210 225 218 212 212 206 203 203 202 201 205 212 203 212 217 218 219 232 225 212 230 226 186 152 139 135 136 136 135
350 342 314 246 219 201 232 229 222 215 211 213 217 220 217 217 218 212 205 203 201 203 205 212 214 223 221 215 220 223 220 225 232 232 229 207 175 160 149 146 146 146 145
2 1 349 254 225 212 217 237 236 233 229 226 226 227 227 219 211 202 196 197 200 205 206 216 226 231 224 212 210 217 224 227 214 182 189 184 167 161 155 153 153 155 152
358 11 351 304 238 229 222 224 243 241 239 234 233 231 228 224 211 201 199 197 200 206 210 220 232 219 204 205 206 212 215 199 179 201 178 172 164 161 159 156 160 161 159
346 4 1 316 258 244 239 234 233 246 245 240 238 236 232 229 219 211 208 204 202 205 208 217 215 197 188 193 193 182 182 178 181 201 170 169 161 162 166 168 164 161 161
339 339 348 331 296 311 246 249 247 243 244 246 241 238 237 234 229 221 216 213 211 210 214 212 201 199 188 188 173 171 183 190 193 202 173 172 170 167 174 175 175 168 166
332 326 320 321 317 303 308 240 245 247 246 245 244 240 238 237 235 229 223 220 218 216 221 217 206 200 200 195 193 191 200 213 209 203 172 177 176 170 181 185 181 174 174
310 310 307 302 302 303 308 300 264 245 245 246 243 242 240 239 239 236 228 228 223 220 223 222 215 212 213 215 212 210 215 217 204 198 192 179 187 182 186 188 196 184 184
313 308 305 304 301 294 291 290 283 273 245 241 245 242 241 240 240 239 232 230 228 224 225 224 220 215 223 229 226 219 224 221 196 202 194 194 197 206 202 200 204 197 191
316 313 308 306 301 297 289 283 277 277 268 245 241 242 241 240 239 238 236 235 231 229 228 229 227 229 233 224 226 230 229 221 214 212 205 202 214 213 217 214 211 206 200
308 312 314 311 309 305 296 286 278 274 268 265 253 241 238 240 238 237 235 235 235 231 231 233 233 236 232 223 227 232 229 223 219 210 207 205 219 229 215 214 216 215 208
315 317 318 315 313 309 306 296 286 281 275 264 264 256 240 239 240 238 237 238 236 234 234 235 235 239 233 225 225 230 230 224 206 213 216 212 216 222 197 210 217 220 208
318 316 318 317 315 316 310 304 295 284 276 271 259 260 251 240 240 240 241 237 237 235 234 234 235 233 230 228 229 230 230 224 214 213 219 221 218 219 212 211 223 231 218
325 325 322 323 320 315 312 309 300 290 279 271 266 254 253 246 258 242 240 240 238 235 235 234 234 233 231 231 233 235 231 232 225 222 218 221 221 220 224 222 223 231 234
320 319 321 320 318 315 310 306 299 286 280 273 267 260 253 250 242 260 248 242 241 239 236 236 234 236 234 231 233 234 234 238 232 222 216 223 223 219 228 223 226 218 232
318 316 315 314 313 311 308 304 295 282 277 273 264 261 255 251 246 235 254 247 245 243 239 238 236 235 236 231 232 232 233 237 236 229 226 220 222 222 225 227 230 214 224
312 309 309 309 310 308 307 301 293 284 271 270 266 257 256 252 249 245 245 242 244 248 243 240 240 238 237 232 232 232 232 235 237 229 221 219 223 224 231 234 233 215 220
309 309 309 309 307 306 304 298 294 285 276 267 264 261 253 252 250 251 247 249 250 234 246 251 243 237 235 231 230 230 230 232 233 229 226 222 224 227 230 234 233 221 224
311 311 312 309 307 305 302 296 291 286 278 269 265 262 256 253 250 250 250 250 258 256 253 224 233 224 226 228 226 230 230 231 232 229 231 227 229 233 234 235 234 230 227
312 312 310 307 305 304 302 298 289 288 284 273 263 262 259 255 251 249 247 249 250 254 253 241 239 243 235 227 220 229 231 232 233 233 233 232 235 236 238 239 238 237 233
314 312 310 307 305 304 302 297 291 288 290 283 261 258 259 252 252 248 249 249 243 244 240 243 235 231 220 223 218 227 229 233 235 239 240 239 240 242 243 242 241 240 239
316 315 311 305 303 302 296 297 290 291 289 288 279 256 253 251 245 244 246 248 239 236 238 239 237 231 222 230 228 221 227 228 232 231 239 243 246 246 245 245 244 243 241
320 319 313 308 304 302 297 297 292 292 290 290 287 273 255 254 247 241 238 241 239 230 231 233 237 228 215 227 225 207 183 207 219 231 235 240 245 246 244 243 243 243 242
325 320 314 309 302 299 298 294 290 289 286 287 283 281 264 251 240 240 233 238 237 229 228 230 233 231 226 209 210 216 227 219 196 212 233 240 244 246 243 240 241 243 244
329 322 315 310 303 298 294 290 290 289 283 282 281 280 268 244 232 231 234 233 238 232 229 229 230 236 231 228 227 217 221 220 221 228 227 234 243 246 248 245 241 242 243
331 325 318 311 311 304 298 293 290 289 285 278 281 272 260 244 229 228 233 241 231 236 234 232 236 233 223 217 224 222 219 214 222 223 223 227 235 245 257 251 248 247 248
Wind_Speed_850mb
14 11 9 10 16 14 20 22 24 27 27 26 26 26 23 21 22 28 30 30 29 30 31 30 28 28 25 29 29 25 21 19 17 18 18 16 13 45 44 39 40 38 33
19 19 10 12 19 22 20 26 26 25 25 26 24 22 21 20 20 25 30 31 30 30 30 28 26 27 28 34 31 28 27 23 22 23 23 19 29 49 39 39 34 35 33
17 12 14 10 20 23 23 24 29 27 27 27 26 24 22 19 21 25 31 31 30 30 27 25 24 27 31 35 34 32 30 25 22 18 21 26 44 47 40 37 32 33 31
23 17 12 6 16 23 25 22 28 30 28 29 28 27 24 21 22 26 32 33 33 30 26 21 19 19 23 30 32 33 30 27 22 17 29 35 50 42 39 32 29 31 32
22 21 14 11 9 23 26 24 25 30 34 31 31 30 28 25 25 29 31 34 34 31 27 20 17 18 22 23 23 28 27 28 24 12 33 49 52 40 35 31 33 31 32
23 25 21 16 16 12 28 31 31 30 33 36 35 34 32 31 30 32 34 36 38 34 31 26 24 21 25 24 31 30 31 29 27 20 35 51 46 38 35 31 35 35 33
18 21 23 19 20 27 16 40 38 36 35 35 39 39 39 38 38 38 37 39 42 38 35 30 31 27 26 31 31 30 29 26 34 30 37 51 46 36 35 31 32 36 33
21 24 27 25 22 24 28 27 26 43 40 41 41 43 44 45 44 44 43 41 45 43 39 36 37 35 31 32 36 34 29 22 39 39 35 43 50 44 44 37 32 34 35
31 35 37 39 37 31 32 32 33 30 47 45 47 46 48 48 48 48 48 45 48 48 45 40 41 38 36 37 39 39 33 25 49 44 40 35 41 52 46 43 38 37 39
35 39 43 45 47 47 41 39 38 37 39 51 52 52 53 52 50 50 51 50 51 52 50 47 48 43 38 37 39 40 38 36 47 50 45 40 37 42 54 53 44 44 45
46 46 45 48 50 50 49 45 43 41 39 45 47 57 58 59 58 56 56 55 53 54 55 53 51 48 44 43 41 40 39 43 45 57 48 41 36 39 43 45 49 49 49
53 56 59 62 59 56 54 52 50 46 45 41 41 44 63 64 65 64 61 59 57 57 57 58 55 51 49 50 46 43 45 44 60 58 51 44 34 34 44 41 50 41 49
53 58 56 49 49 50 51 55 55 55 50 50 45 42 47 59 72 70 69 66 64 62 61 62 61 56 61 59 52 51 48 46 49 66 58 50 43 41 50 53 48 47 49
47 38 40 48 53 57 66 63 62 61 58 53 53 48 48 53 38 73 76 75 73 70 68 68 67 64 68 63 56 53 53 50 55 54 72 61 50 46 44 41 51 41 36
42 49 58 64 75 86 87 80 68 65 64 61 57 57 50 51 57 39 77 80 81 79 76 73 73 72 73 71 62 57 57 54 56 57 73 66 59 47 48 46 44 44 41
51 60 69 78 89 97 93 87 76 68 67 66 64 60 60 58 59 61 39 74 86 85 83 82 82 82 81 79 72 64 61 56 56 59 64 72 61 52 49 50 44 50 46
60 71 79 91 98 93 86 78 71 68 68 69 70 68 65 64 64 64 67 57 66 91 91 87 89 94 88 86 81 72 65 59 54 59 62 72 65 56 53 50 48 55 49
73 82 90 94 92 86 78 76 74 68 70 72 71 74 72 68 67 69 68 72 85 56 74 84 101 99 101 97 90 81 73 65 57 55 61 68 68 60 58 55 49 58 56
82 86 90 87 87 85 78 72 74 70 67 73 73 73 76 75 68 68 71 68 59 56 58 46 79 107 97 100 97 88 80 73 64 60 60 70 65 64 62 55 51 55 62
83 89 86 85 83 80 77 68 66 71 71 69 74 73 72 73 72 66 68 68 62 56 61 61 69 63 108 110 95 91 85 75 67 67 66 67 69 69 68 62 56 56 60
89 86 79 81 78 74 71 67 67 67 69 67 70 71 70 68 69 70 66 65 61 55 55 58 66 74 69 66 49 53 87 74 72 74 73 70 70 73 75 71 65 63 58
83 76 69 68 70 68 69 66 63 61 68 67 64 71 70 69 64 68 63 56 58 61 57 59 63 74 82 85 86 76 54 76 78 79 79 80 80 77 78 82 76 71 66
78 73 69 66 65 62 60 59 63 58 61 62 62 62 67 65 60 60 60 54 56 62 64 62 67 69 74 83 89 61 26 30 66 80 87 86 84 84 82 82 78 74 69
73 72 68 63 59 58 58 58 58 63 63 63 63 64 63 56 56 50 57 50 52 62 63 63 64 71 79 81 89 86 70 45 37 36 78 83 72 80 81 81 79 75 71
72 70 65 60 58 53 51 55 58 58 62 61 65 69 65 56 54 39 48 49 50 58 66 63 59 69 84 92 92 96 101 78 57 50 51 62 80 77 83 79 78 74 71
72 68 62 59 55 56 55 51 51 55 61 61 61 62 54 49 53 45 45 47 45 49 61 70 67 65 88 89 94 96 103 96 89 79 68 62 79 65 67 64 77 75 71
Wind_Direction_850mb
354 337 284 239 205 211 225 212 202 198 198 200 201 204 210 225 218 212 212 206 203 203 202 201 205 212 203 212 217 218 219 232 225 212 230 226 186 152 139 135 136 136 135
350 342 314 246 219 201 232 229 222 215 211 213 217 220 217 217 218 212 205 203 201 203 205 212 214 223 221 215 220 223 220 225 232 232 229 207 175 160 149 146 146 146 145
2 1 349 254 225 212 217 237 236 233 229 226 226 227 227 219 211 202 196 197 200 205 206 216 226 231 224 212 210 217 224 227 214 182 189 184 167 161 155 153 153 155 152
358 11 351 304 238 229 222 224 243 241 239 234 233 231 228 224 211 201 199 197 200 206 210 220 232 219 204 205 206 212 215 199 179 201 178 172 164 161 159 156 160 161 159
346 4 1 316 258 244 239 234 233 246 245 240 238 236 232 229 219 211 208 204 202 205 208 217 215 197 188 193 193 182 182 178 181 201 170 169 161 162 166 168 164 161 161
339 339 348 331 296 311 246 249 247 243 244 246 241 238 237 234 229 221 216 213 211 210 214 212 201 199 188 188 173 171 183 190 193 202 173 172 170 167 174 175 175 168 166
332 326 320 321 317 303 308 240 245 247 246 245 244 240 238 237 235 229 223 220 218 216 221 217 206 200 200 195 193 191 200 213 209 203 172 177 176 170 181 185 181 174 174
310 310 307 302 302 303 308 300 264 245 245 246 243 242 240 239 239 236 228 228 223 220 223 222 215 212 213 215 212 210 215 217 204 198 192 179 187 182 186 188 196 184 184
313 308 305 304 301 294 291 290 283 273 245 241 245 242 241 240 240 239 232 230 228 224 225 224 220 215 223 229 226 219 224 221 196 202 194 194 197 206 202 200 204 197 191
316 313 308 306 301 297 289 283 277 277 268 245 241 242 241 240 239 238 236 235 231 229 228 229 227 229 233 224 226 230 229 221 214 212 205 202 214 213 217 214 211 206 200
308 312 314 311 309 305 296 286 278 274 268 265 253 241 238 240 238 237 235 235 235 231 231 233 233 236 232 223 227 232 229 223 219 210 207 205 219 229 215 214 216 215 208
315 317 318 315 313 309 306 296 286 281 275 264 264 256 240 239 240 238 237 238 236 234 234 235 235 239 233 225 225 230 230 224 206 213 216 212 216 222 197 210 217 220 208
318 316 318 317 315 316 310 304 295 284 276 271 259 260 251 240 240 240 241 237 237 235 234 234 235 233 230 228 229 230 230 224 214 213 219 221 218 219 212 211 223 231 218
325 325 322 323 320 315 312 309 300 290 279 271 266 254 253 246 258 242 240 240 238 235 235 234 234 233 231 231 233 235 231 232 225 222 218 221 221 220 224 222 223 231 234
320 319 321 320 318 315 310 306 299 286 280 273 267 260 253 250 242 260 248 242 241 239 236 236 234 236 234 231 233 234 234 238 232 222 216 223 223 219 228 223 226 218 232
318 316 315 314 313 311 308 304 295 282 277 273 264 261 255 251 246 235 254 247 245 243 239 238 236 235 236 231 232 232 233 237 236 229 226 220 222 222 225 227 230 214 224
312 309 309 309 310 308 307 301 293 284 271 270 266 257 256 252 249 245 245 242 244 248 243 240 240 238 237 232 232 232 232 235 237 229 221 219 223 224 231 234 233 215 220
309 309 309 309 307 306 304 298 294 285 276 267 264 261 253 252 250 251 247 249 250 234 246 251 243 237 235 231 230 230 230 232 233 229 226 222 224 227 230 234 233 221 224
311 311 312 309 307 305 302 296 291 286 278 269 265 262 256 253 250 250 250 250 258 256 253 224 233 224 226 228 226 230 230 231 232 229 231 227 229 233 234 235 234 230 227
312 312 310 307 305 304 302 298 289 288 284 273 263 262 259 255 251 249 247 249 250 254 253 241 239 243 235 227 220 229 231 232 233 233 233 232 235 236 238 239 238 237 233
314 312 310 307 305 304 302 297 291 288 290 283 261 258 259 252 252 248 249 249 243 244 240 243 235 231 220 223 218 227 229 233 235 239 240 239 240 242 243 242 241 240 239
316 315 311 305 303 302 296 297 290 291 289 288 279 256 253 251 245 244 246 248 239 236 238 239 237 231 222 230 228 221 227 228 232 231 239 243 246 246 245 245 244 243 241
320 319 313 308 304 302 297 297 292 292 290 290 287 273 255 254 247 241 238 241 239 230 231 233 237 228 215 227 225 207 183 207 219 231 235 240 245 246 244 243 243 243 242
325 320 314 309 302 299 298 294 290 289 286 287 283 281 264 251 240 240 233 238 237 229 228 230 233 231 226 209 210 216 227 219 196 212 233 240 244 246 243 240 241 243 244
329 322 315 310 303 298 294 290 290 289 283 282 281 280 268 244 232 231 234 233 238 232 229 229 230 236 231 228 227 217 221 220 221 228 227 234 243 246 248 245 241 242 243
331 325 318 311 311 304 298 293 290 289 285 278 281 272 260 244 229 228 233 241 231 236 234 232 236 233 223 217 224 222 219 214 222 223 223 227 235 245 257 251 248 247 248